Dewpoint
4 4 5 4 3 5 5 2 1 0 2 3 3 3 0 -1 1 0 2 4 4 4 5 6 6 5 5 6 7 7 8 10 10 7 8 7 10 10 9 9 10 9 8
5 5 4 4 5 4 4 5 4 3 1 1 2 2 0 -0 1 1 2 2 2 3 3 1 2 3 4 5 6 8 9 9 10 10 9 9 10 10 9 10 10 10 9
5 6 6 5 5 5 5 5 5 5 4 1 -1 -0 -0 -0 0 1 2 2 1 0 -4 -6 -6 -4 -1 1 1 1 8 10 9 10 9 10 9 9 10 10 10 8 9
5 6 6 6 5 6 6 6 6 6 5 3 1 -2 -2 -3 -3 -3 -3 -4 -6 -6 -4 -1 0 1 -1 -2 1 2 4 8 9 9 9 9 9 10 10 10 9 9 9
5 5 6 6 6 5 5 6 6 5 5 5 5 4 4 4 3 1 1 -0 -0 1 3 2 1 2 3 3 0 -3 4 6 8 9 9 9 9 10 7 7 8 7 7
4 4 4 4 5 5 5 5 5 5 4 4 4 4 3 1 1 2 2 2 2 1 1 2 2 3 4 5 3 5 5 7 8 8 7 9 9 8 8 7 7 7 8
3 3 3 3 3 4 4 5 5 4 4 4 4 3 3 2 2 2 2 2 2 2 2 2 3 4 4 5 5 6 7 7 7 7 7 8 8 8 6 6 7 8 8
3 3 4 4 4 4 4 4 4 4 4 4 4 4 3 3 3 2 2 3 3 3 3 2 4 5 5 6 5 7 7 6 5 5 6 7 7 8 8 7 6 6 5
-3 -0 -0 0 2 3 4 3 3 3 3 3 3 3 3 3 3 4 4 5 5 5 5 4 5 5 5 6 6 6 6 6 6 6 6 6 5 5 5 4 4 4 4
-12 -9 -5 -3 -2 0 2 3 3 3 3 3 3 3 3 4 4 4 4 4 4 5 5 4 5 5 5 5 5 5 5 5 4 3 3 3 3 3 3 3 2 1 -0
-13 -12 -11 -9 -7 -5 -3 -1 1 1 1 1 2 2 2 3 3 3 3 2 3 3 2 2 2 2 2 2 2 2 2 2 2 1 0 -1 -3 -6 -7 -8 -10 -12 -10
-12 -13 -14 -13 -12 -10 -8 -6 -5 -4 -3 -3 -4 -5 -5 -4 -4 -2 -2 -1 -1 -0 -1 -2 -6 -10 -10 -9 -8 -8 -9 -10 -10 -11 -12 -12 -12 -13 -14 -15 -15 -14 -15
-11 -12 -12 -12 -12 -12 -11 -10 -8 -8 -7 -7 -8 -10 -12 -12 -12 -12 -12 -13 -12 -11 -13 -14 -15 -15 -16 -16 -17 -16 -16 -16 -16 -16 -16 -16 -17 -17 -17 -17 -16 -16 -15
-7 -8 -9 -10 -11 -11 -12 -13 -13 -13 -12 -12 -12 -12 -14 -14 -14 -15 -15 -15 -14 -15 -16 -16 -16 -16 -16 -16 -16 -16 -16 -15 -16 -16 -17 -17 -17 -18 -18 -20 -20 -21 -20
-6 -6 -6 -8 -9 -10 -11 -12 -12 -13 -13 -13 -13 -13 -13 -14 -14 -14 -15 -15 -14 -14 -14 -14 -14 -14 -14 -15 -15 -16 -17 -19 -20 -21 -22 -22 -21 -19 -19 -19 -19 -18 -18
-5 -5 -4 -4 -6 -8 -9 -10 -11 -11 -12 -12 -12 -12 -13 -13 -13 -13 -13 -13 -12 -12 -12 -13 -13 -13 -13 -14 -16 -19 -20 -21 -20 -20 -20 -21 -21 -20 -19 -17 -16 -15 -15
-4 -4 -4 -3 -4 -4 -6 -8 -9 -9 -10 -10 -11 -12 -12 -12 -12 -12 -12 -12 -11 -11 -11 -12 -11 -12 -12 -14 -16 -19 -20 -20 -20 -20 -20 -19 -17 -16 -15 -14 -13 -12 -12
-2 -2 -3 -3 -3 -2 -3 -4 -6 -7 -8 -9 -9 -10 -11 -11 -11 -11 -11 -11 -10 -10 -10 -10 -10 -11 -12 -13 -16 -18 -17 -18 -18 -18 -17 -16 -14 -12 -12 -12 -12 -12 -13
-0 -1 -1 -1 -1 -1 -1 -2 -3 -4 -6 -7 -8 -9 -9 -10 -10 -10 -10 -10 -10 -10 -9 -9 -10 -10 -11 -12 -15 -17 -17 -18 -18 -17 -15 -12 -11 -11 -12 -12 -13 -13 -13
0 0 1 0 -0 -0 -1 -1 -1 -1 -3 -5 -6 -7 -8 -9 -9 -10 -10 -10 -10 -10 -9 -9 -9 -9 -10 -11 -14 -16 -16 -17 -17 -16 -13 -11 -11 -12 -12 -13 -13 -13 -13
-5 -4 -2 -1 0 1 1 0 -0 -0 -1 -2 -4 -6 -7 -8 -9 -9 -10 -10 -10 -10 -10 -9 -9 -9 -10 -10 -14 -15 -16 -17 -16 -15 -12 -11 -12 -12 -12 -12 -13 -13 -12
-5 -5 -4 -2 -1 -0 0 1 0 0 -0 -1 -2 -4 -6 -7 -8 -9 -10 -10 -10 -10 -10 -9 -8 -9 -10 -10 -14 -15 -16 -16 -16 -15 -13 -12 -12 -12 -12 -13 -12 -12 -12
-4 -4 -4 -3 -2 -2 -1 -0 0 0 0 -0 -1 -2 -4 -5 -6 -8 -8 -9 -10 -10 -9 -8 -8 -9 -9 -10 -14 -15 -17 -16 -16 -16 -14 -12 -12 -12 -12 -13 -12 -12 -12
-7 -6 -5 -4 -3 -2 -2 -1 -1 -1 -1 -0 -1 -1 -3 -5 -6 -7 -8 -9 -10 -9 -9 -8 -8 -8 -8 -10 -14 -16 -17 -17 -16 -15 -13 -12 -12 -12 -12 -12 -12 -12 -12
-5 -5 -6 -5 -4 -3 -2 -2 -2 -2 -2 -1 -1 -1 -2 -4 -4 -5 -7 -8 -8 -8 -8 -8 -7 -7 -8 -12 -14 -16 -17 -16 -16 -15 -13 -12 -12 -12 -12 -12 -12 -12 -12
-5 -5 -5 -4 -4 -3 -2 -2 -2 -2 -2 -2 -2 -2 -3 -3 -4 -5 -6 -6 -6 -7 -7 -7 -7 -8 -9 -13 -15 -16 -16 -16 -15 -14 -13 -12 -12 -12 -12 -12 -12 -12 -11
Wind_Speed
11 7 10 9 11 13 13 10 9 10 12 13 14 16 17 17 14 18 17 17 20 21 21 22 25 27 31 30 31 34 35 36 39 41 43 42 40 37 36 38 35 29 28
6 7 8 8 8 9 8 8 8 7 7 8 10 13 18 18 18 18 20 21 24 26 26 25 25 24 23 24 28 32 34 34 37 42 36 38 38 36 38 37 38 33 33
6 4 4 5 6 8 10 9 8 7 6 5 7 10 14 18 19 20 22 24 26 27 27 27 29 28 29 28 28 27 32 35 37 37 38 34 36 37 38 37 34 28 28
9 8 6 5 9 9 9 9 9 9 7 6 6 7 9 13 17 20 23 24 26 27 27 27 27 27 29 30 30 29 28 34 34 35 34 35 33 31 33 30 28 24 28
13 9 9 9 10 11 12 10 9 9 8 8 8 9 10 12 14 16 18 20 23 25 24 24 27 27 26 27 29 31 29 31 32 35 31 30 27 22 20 18 22 25 29
14 14 13 11 10 9 9 8 8 8 8 9 10 12 13 13 14 14 16 18 19 21 24 25 26 26 26 26 28 28 27 29 28 37 37 28 22 19 25 20 28 31 28
14 13 12 14 13 11 9 9 10 10 9 10 10 11 12 13 15 16 19 21 22 23 22 23 24 24 24 22 21 23 24 24 24 20 21 22 24 26 27 28 33 30 30
12 12 12 12 13 13 11 10 10 10 9 11 12 13 14 15 17 19 18 19 22 22 22 22 20 20 20 19 17 16 16 18 18 18 19 21 21 22 25 27 24 23 18
9 10 11 12 12 10 10 10 10 11 11 10 9 10 13 14 10 8 8 11 11 14 16 19 18 17 18 16 16 17 15 13 17 18 19 19 17 17 17 14 13 13 14
12 11 11 11 11 9 7 8 9 10 11 11 10 9 9 8 10 8 7 9 9 7 7 8 11 12 14 17 16 15 15 12 10 9 8 8 9 11 12 13 14 15 16
12 12 11 11 11 10 9 9 9 9 10 9 8 8 9 8 6 5 5 4 3 4 3 2 1 2 2 3 4 5 5 6 8 10 10 14 13 12 12 12 12 13 12
12 13 13 12 12 12 11 10 10 10 10 9 9 9 8 7 6 5 5 5 5 6 5 4 5 6 6 5 5 6 7 8 9 9 8 9 9 9 9 9 9 9 11
13 13 13 13 13 12 12 12 11 11 10 9 9 8 8 8 7 5 5 4 5 5 6 8 8 8 8 8 8 7 7 7 7 8 7 7 8 9 10 9 9 9 9
15 14 14 14 13 13 13 13 12 12 11 10 9 8 8 7 7 7 6 5 5 6 7 7 8 9 9 9 9 8 8 8 9 10 10 10 10 9 10 11 11 11 11
18 17 16 16 15 15 14 13 13 12 11 11 11 11 10 9 8 7 7 7 6 5 6 6 6 7 7 8 9 9 9 9 9 9 8 8 9 9 10 11 12 12 13
20 19 18 18 17 17 17 16 16 15 14 12 12 11 10 10 9 8 7 7 7 6 7 7 8 9 10 10 10 11 11 10 10 10 11 10 10 10 11 10 11 12 13
23 21 20 21 20 19 19 19 18 17 17 17 15 14 13 12 11 10 9 9 9 9 9 8 9 9 9 9 10 10 10 10 9 10 9 9 9 9 9 9 10 11 11
24 23 23 23 23 22 22 21 20 20 20 19 18 18 16 15 14 13 13 12 11 11 11 10 10 10 10 10 10 9 8 10 10 10 9 8 9 8 8 9 11 13 15
25 26 25 25 25 25 24 24 23 23 22 21 20 21 19 18 18 17 15 16 15 14 13 12 12 12 12 12 12 12 11 11 11 10 9 7 7 7 8 10 12 14 16
26 26 25 26 27 27 28 27 27 25 24 23 23 22 20 21 22 21 19 18 17 16 15 14 13 13 12 12 13 12 12 12 11 9 8 7 7 8 9 11 13 16 18
24 26 27 28 28 28 28 29 28 27 26 25 24 21 20 23 23 22 21 20 18 17 16 15 13 12 12 13 13 13 13 12 10 9 8 7 6 6 9 12 14 16 18
22 22 23 25 25 26 26 27 27 27 26 26 25 22 21 24 23 23 22 21 19 17 16 15 14 12 11 13 14 13 13 12 11 9 8 7 6 7 10 11 14 15 17
20 21 22 23 23 23 24 25 24 25 25 25 24 23 23 24 23 22 21 19 18 17 17 16 13 12 12 13 14 13 12 11 11 10 8 7 6 8 10 11 15 16 17
23 23 23 23 23 24 23 23 21 22 24 24 24 23 22 22 21 20 19 19 19 17 17 15 14 13 13 13 13 12 11 10 10 9 8 7 7 9 9 11 13 15 16
23 24 25 25 24 24 23 21 20 20 22 22 20 21 22 20 20 19 18 18 17 17 16 15 14 14 12 12 12 11 11 10 9 9 8 7 8 9 10 11 13 14 15
23 22 23 24 24 23 20 19 19 20 20 20 19 18 18 19 18 17 18 19 18 15 14 15 14 12 11 11 11 10 10 10 9 9 8 8 10 10 10 10 10 11 13
Wind_Direction
321 301 292 289 287 293 293 303 308 289 278 271 261 248 239 239 246 246 256 255 255 260 261 265 267 268 265 268 268 263 262 260 257 268 266 271 270 269 268 270 257 256 245
333 307 312 318 313 300 319 330 325 328 310 287 260 252 235 232 237 245 251 256 260 261 264 268 271 273 274 273 270 263 256 262 261 263 267 269 270 270 272 262 268 262 247
22 27 360 341 333 327 310 309 313 318 317 298 273 262 250 246 251 255 261 264 267 269 269 269 269 268 268 270 272 278 262 257 261 254 269 267 277 276 269 269 264 252 260
34 46 43 355 335 327 316 317 315 305 304 288 273 263 256 253 255 258 261 264 266 268 269 270 269 268 269 267 269 270 272 264 256 260 262 268 270 262 268 254 266 256 264
23 6 358 340 335 332 319 315 307 305 301 293 281 271 267 264 263 268 268 271 272 269 268 270 271 269 265 265 263 266 268 266 267 246 257 266 257 246 261 265 272 272 273
19 13 5 348 340 327 329 332 319 307 305 295 284 278 277 277 281 284 286 285 282 276 266 264 272 273 272 271 262 257 257 262 275 258 256 257 256 262 260 270 270 263 261
12 11 6 0 351 340 328 321 314 308 306 303 295 287 283 278 278 282 286 284 285 279 275 268 266 266 268 269 263 262 258 255 256 269 272 265 257 265 270 273 258 249 249
2 359 2 16 16 10 1 358 350 339 321 303 295 291 289 287 287 287 290 291 280 272 266 271 273 268 266 265 264 256 255 258 261 266 265 259 262 258 252 241 233 236 241
342 346 2 12 18 28 18 14 8 2 353 344 330 316 311 311 302 298 306 315 305 272 266 269 271 275 270 263 264 271 259 258 271 272 274 263 239 232 235 239 249 262 269
337 335 342 349 355 5 8 0 2 2 8 12 360 349 341 325 317 316 312 296 278 250 250 247 250 249 255 253 250 248 243 246 252 252 250 246 251 260 267 271 269 267 270
331 332 333 333 332 334 337 339 339 341 346 354 358 356 350 344 345 350 356 333 302 297 282 263 218 141 201 200 215 223 244 258 278 283 288 283 275 279 283 287 293 293 286
324 326 327 328 326 323 321 319 317 316 319 324 330 334 335 333 335 329 331 331 329 324 327 330 337 346 339 321 304 299 292 286 285 286 287 286 291 290 292 298 300 298 294
312 315 316 316 317 316 314 313 312 311 311 312 315 320 323 326 331 343 336 341 337 342 344 344 344 346 344 345 342 337 334 331 328 325 319 311 309 311 308 306 306 307 307
302 304 306 308 309 311 314 312 309 305 302 299 295 294 296 299 303 307 311 320 332 343 352 356 354 350 343 336 332 326 319 312 307 305 308 308 311 316 317 318 317 313 311
291 296 300 303 304 305 306 304 300 298 295 292 287 281 276 276 280 287 301 310 321 331 334 334 333 330 328 326 324 321 320 318 314 315 316 315 317 318 321 323 322 322 321
285 289 292 292 296 299 299 296 294 295 290 286 283 283 283 280 279 283 286 292 300 308 315 320 323 324 324 323 323 322 320 318 317 320 321 321 322 323 325 326 326 325 320
280 283 282 284 287 290 291 291 292 290 287 288 285 278 275 276 274 271 272 277 285 295 300 302 304 305 308 309 310 309 303 300 304 311 319 324 325 325 329 333 335 332 328
279 280 279 280 282 283 285 288 286 285 287 284 283 280 276 272 270 271 276 278 279 283 287 291 294 299 303 307 313 319 314 307 310 318 325 326 326 333 341 341 342 341 342
277 277 279 279 277 278 278 279 280 280 281 281 277 275 275 272 268 265 266 271 276 280 285 289 295 300 305 311 316 317 316 313 315 322 325 327 331 330 337 340 342 344 342
279 280 278 275 274 272 272 273 274 276 278 278 277 277 273 265 263 265 265 264 267 271 275 281 288 293 298 305 308 308 310 309 310 313 311 314 316 320 334 341 343 343 344
277 276 274 273 272 273 273 272 273 274 275 275 277 277 269 265 267 265 264 265 265 266 269 274 278 283 291 298 301 298 302 301 300 295 293 299 302 315 333 339 341 341 341
281 279 277 275 276 274 274 272 270 270 272 272 274 273 267 263 263 261 262 263 264 265 267 269 273 278 287 294 293 294 297 294 289 287 286 288 296 317 332 338 340 343 346
286 285 283 281 279 279 277 274 272 272 273 272 269 265 263 263 264 263 262 261 258 261 262 266 270 276 285 288 288 291 294 291 286 286 282 283 285 314 327 337 343 344 345
289 289 287 286 284 281 279 278 277 273 273 272 270 264 260 262 263 263 260 255 254 257 260 261 263 271 278 285 285 288 286 286 288 284 279 277 281 311 323 331 340 339 335
283 283 282 281 280 279 279 279 279 278 276 275 271 265 260 254 255 256 254 250 253 256 259 264 269 272 274 277 278 279 279 281 281 278 273 266 290 306 322 328 333 335 338
284 280 279 279 278 279 278 276 276 277 276 276 273 263 256 254 254 248 244 247 249 254 260 263 265 266 269 273 273 270 273 274 273 269 260 263 293 304 308 315 322 335 345
Height
1435 1435 1436 1437 1437 1437 1436 1433 1431 1430 1430 1431 1433 1435 1439 1442 1445 1447 1449 1450 1451 1452 1453 1453 1454 1455 1455 1456 1457 1457 1458 1459 1458 1457 1458 1460 1462 1463 1465 1465 1467 1466 1467
1436 1435 1436 1436 1435 1434 1433 1431 1430 1429 1428 1429 1431 1432 1435 1437 1440 1442 1444 1446 1446 1446 1447 1448 1448 1449 1449 1449 1449 1449 1450 1451 1451 1449 1450 1450 1451 1453 1456 1457 1458 1456 1457
1437 1436 1436 1435 1435 1433 1432 1430 1429 1429 1428 1428 1429 1430 1432 1434 1436 1438 1440 1440 1440 1441 1441 1442 1441 1442 1442 1442 1443 1442 1442 1443 1443 1442 1441 1444 1443 1444 1445 1447 1445 1447 1449
1439 1437 1436 1435 1434 1432 1431 1430 1429 1428 1428 1428 1427 1428 1429 1431 1432 1433 1434 1434 1434 1435 1435 1436 1435 1435 1435 1435 1435 1435 1435 1435 1434 1434 1434 1435 1435 1434 1436 1437 1438 1441 1442
1442 1440 1438 1436 1434 1432 1430 1429 1428 1428 1427 1427 1427 1427 1427 1428 1428 1428 1428 1428 1427 1427 1428 1429 1429 1428 1428 1427 1427 1427 1428 1427 1426 1424 1425 1427 1425 1426 1428 1428 1431 1433 1434
1445 1442 1440 1438 1435 1432 1430 1429 1428 1426 1425 1425 1424 1424 1424 1424 1423 1423 1423 1423 1422 1421 1421 1422 1422 1422 1421 1420 1419 1419 1420 1419 1419 1416 1418 1420 1417 1418 1422 1421 1424 1426 1425
1446 1443 1440 1437 1434 1432 1430 1429 1428 1427 1425 1424 1423 1422 1421 1421 1421 1421 1420 1418 1417 1417 1416 1415 1415 1415 1415 1413 1412 1413 1411 1411 1413 1413 1413 1411 1412 1413 1414 1412 1416 1418 1418
1448 1445 1442 1439 1435 1433 1431 1429 1427 1426 1425 1424 1422 1421 1420 1419 1418 1416 1415 1413 1412 1411 1411 1411 1411 1410 1410 1409 1408 1408 1407 1407 1406 1408 1408 1408 1407 1407 1408 1409 1408 1409 1409
1449 1447 1444 1441 1438 1436 1433 1431 1429 1427 1424 1422 1420 1419 1418 1416 1415 1414 1412 1411 1409 1408 1408 1407 1407 1408 1407 1406 1406 1405 1403 1403 1402 1403 1402 1401 1401 1401 1402 1403 1403 1402 1402
1449 1446 1444 1442 1440 1438 1436 1433 1431 1429 1427 1424 1422 1420 1418 1416 1414 1413 1412 1410 1409 1407 1406 1405 1404 1404 1404 1404 1403 1402 1401 1400 1400 1400 1399 1399 1398 1398 1398 1398 1399 1400 1401
1448 1445 1443 1441 1439 1437 1436 1434 1432 1430 1429 1427 1425 1423 1420 1418 1416 1414 1412 1411 1410 1409 1406 1405 1404 1404 1404 1402 1401 1400 1400 1399 1399 1398 1396 1396 1397 1398 1397 1396 1395 1396 1396
1446 1444 1442 1439 1437 1436 1434 1433 1431 1430 1428 1427 1425 1423 1421 1419 1417 1416 1415 1414 1413 1412 1410 1408 1407 1405 1403 1402 1401 1401 1400 1400 1400 1399 1398 1397 1397 1396 1395 1393 1392 1392 1392
1444 1442 1440 1438 1436 1435 1433 1431 1430 1429 1427 1426 1424 1422 1421 1419 1417 1415 1414 1414 1413 1412 1411 1409 1408 1407 1405 1404 1402 1401 1400 1398 1397 1396 1396 1396 1395 1393 1392 1391 1390 1389 1389
1440 1439 1437 1436 1434 1432 1430 1429 1428 1426 1425 1423 1422 1421 1420 1418 1417 1415 1414 1413 1412 1411 1410 1409 1409 1408 1407 1406 1404 1403 1401 1400 1399 1397 1396 1394 1393 1392 1391 1389 1389 1387 1387
1435 1434 1433 1432 1430 1428 1427 1426 1425 1424 1422 1421 1419 1418 1417 1416 1416 1415 1414 1413 1412 1411 1410 1408 1407 1406 1405 1404 1403 1402 1401 1400 1398 1396 1394 1392 1391 1390 1388 1387 1386 1385 1384
1430 1430 1429 1427 1426 1425 1423 1421 1421 1419 1419 1418 1417 1417 1416 1415 1414 1413 1412 1412 1411 1409 1408 1407 1406 1405 1404 1403 1401 1399 1398 1397 1396 1394 1393 1390 1388 1387 1386 1385 1384 1383 1382
1424 1423 1422 1421 1420 1419 1418 1417 1417 1415 1414 1413 1412 1412 1412 1412 1411 1410 1409 1409 1407 1407 1406 1404 1404 1403 1402 1401 1400 1398 1397 1396 1394 1393 1390 1389 1388 1385 1384 1382 1381 1380 1379
1418 1418 1417 1416 1415 1414 1413 1412 1412 1411 1410 1409 1408 1408 1407 1407 1406 1406 1406 1404 1404 1402 1402 1401 1400 1399 1399 1397 1396 1395 1394 1392 1391 1390 1389 1387 1386 1384 1382 1381 1379 1377 1375
1412 1412 1412 1411 1410 1409 1408 1407 1405 1404 1403 1403 1403 1402 1403 1402 1402 1401 1401 1401 1401 1401 1400 1400 1399 1398 1397 1396 1394 1393 1391 1389 1388 1387 1386 1385 1384 1384 1382 1380 1378 1376 1373
1405 1405 1405 1404 1402 1401 1400 1399 1399 1398 1397 1396 1396 1396 1398 1398 1396 1397 1396 1396 1396 1396 1395 1394 1394 1394 1393 1392 1391 1390 1388 1387 1386 1384 1384 1383 1383 1382 1380 1378 1376 1374 1371
1394 1394 1393 1393 1392 1392 1392 1391 1391 1390 1389 1389 1389 1390 1391 1390 1390 1391 1391 1390 1390 1390 1389 1389 1389 1389 1389 1388 1388 1387 1386 1384 1383 1383 1382 1380 1380 1380 1378 1376 1374 1372 1369
1386 1385 1384 1383 1383 1382 1381 1381 1381 1381 1380 1381 1382 1383 1383 1382 1383 1384 1385 1386 1386 1386 1386 1386 1385 1385 1384 1384 1384 1383 1382 1382 1381 1380 1379 1378 1377 1377 1375 1374 1372 1370 1367
1380 1379 1378 1377 1376 1374 1373 1372 1373 1373 1373 1373 1373 1374 1376 1375 1376 1377 1379 1380 1380 1380 1381 1381 1381 1381 1380 1380 1379 1379 1378 1378 1377 1376 1376 1375 1374 1374 1373 1371 1369 1368 1366
1374 1373 1371 1370 1369 1368 1366 1366 1366 1365 1365 1365 1365 1365 1367 1368 1369 1370 1372 1373 1374 1374 1375 1375 1375 1375 1375 1375 1375 1375 1374 1373 1373 1373 1373 1372 1372 1371 1370 1369 1368 1367 1366
1365 1364 1364 1363 1361 1360 1359 1359 1359 1359 1359 1358 1356 1357 1359 1360 1361 1362 1365 1367 1368 1369 1370 1371 1370 1371 1371 1370 1371 1370 1370 1370 1370 1370 1370 1370 1370 1369 1368 1368 1367 1366 1365
1356 1354 1353 1353 1353 1352 1352 1352 1352 1352 1351 1351 1350 1350 1353 1354 1355 1357 1358 1359 1361 1363 1364 1365 1366 1366 1366 1367 1367 1367 1367 1367 1367 1368 1367 1367 1367 1367 1366 1366 1366 1365 1364